Regional Weather Roundup
Issued by NWS State College, PA

Home | Current Version | Previous Version | Text Only | Print | Product List | Glossary On
Versions: 1 2 3 4 5 6 7 8 9 10 11 12 13 14 15 16 17 18 19 20 21 22 23 24 25 26 27 28 29 30 31 32 33 34 35 36 37 38 39 40 41 42 43 44 45 46 47 48 49 50
000
ASUS41 KCTP 300910
RWRCTP

REGIONAL WEATHER ROUNDUP
NATIONAL WEATHER SERVICE STATE COLLEGE PA
500 AM EDT TUE JUN 30 2015

Note: "fair" indicates few or no clouds below 12,000 feet with no
significant weather and/or obstructions to visibility.

* = STATION THAT DOES NOT REPORT PRECIPITATION /E.G. RAIN...SNOW...ETC/
    THUNDER OR FOG.

PAZ002>004-007>009-013>016-020>023-029>032-301000-
WESTERN PENNSYLVANIA

CITY           SKY/WX    TMP DP  RH WIND       PRES   REMARKS
ERIE           CLOUDY    62  59  90 E3        29.81S
MEADVILLE      CLOUDY    61  58  90 VRB3      29.82S FOG
FRANKLIN*      CLOUDY    61  57  88 SE8       29.84F
NEW CASTLE     CLOUDY    63  63 100 CALM      29.82F
BEAVER COUNTY  NOT AVBL
BUTLER*        CLOUDY    63  61  94 S3        29.85R
PITTSBURGH INT CLOUDY    63  61  93 S5        29.82S
PITTSBURGH     CLOUDY    63  59  87 S7        29.83S
INDIANA*       CLOUDY    64  63  94 CALM      29.88S
LATROBE        NOT AVBL
WASHINGTON CO* NOT AVBL
$$

PAZ004>006-010>012-017>019-024>028-033>037-041-042-045-046-049>053-301000-
CENTRAL PENNSYLVANIA

CITY           SKY/WX    TMP DP  RH WIND       PRES   REMARKS
BRADFORD       LGT RAIN  58  56  93 SE3       29.89S
DUBOIS         LGT RAIN  61  57  87 CALM      29.87S
CLEARFIELD     LGT RAIN  59  58  96 N6        29.89S
JOHNSTOWN      LGT RAIN  62  57  83 SE6       29.89S
ALTOONA        CLOUDY    65  58  78 CALM      29.89S
STATE COLLEGE  CLOUDY    61  60  95 N6        29.89S
WILLIAMSPORT   CLOUDY    64  61  90 CALM      29.88F
SELINSGROVE    CLOUDY    64  62  93 CALM      29.90S
FT INDIANTOWN  MOCLDY    64  60  86 NE3       29.92S
CAPITAL CITY   LGT RAIN  68  59  73 E3        29.90S
HARRISBURG     CLOUDY    68  60  75 CALM      29.89S
YORK           CLOUDY    69  62  78 CALM      29.90S
$$

PAZ038>040-043-044-047-048-054-055-060>062-067>071-301000-
EASTERN PENNSYLVANIA

CITY           SKY/WX    TMP DP  RH WIND       PRES   REMARKS
SCRANTON       LGT RAIN  65  60  84 NE7       29.93F
MOUNT POCONO   CLOUDY    61  56  83 CALM      29.98F
ALLENTOWN      CLOUDY    63  59  87 NE5       29.94S
QUAKERTOWN*    CLOUDY    63  59  88 CALM      29.95S
READING        CLOUDY    65  59  81 N3        29.91S
LANCASTER      PTCLDY    65  61  87 SE7       29.91F
COATESVILLE    MOSUNNY   64  59  82 SE3       29.95S
POTTSTOWN      CLOUDY    64  60  87 NE3       29.95S
BLUE BELL      MOCLDY    63  61  94 CALM      29.93S
DOYLESTOWN     CLOUDY    61  59  93 CALM      29.94S
WILLOW GROVE   NOT AVBL
NORTH PHILA    MOCLDY    65  58  78 E3        29.96S
PHILADELPHIA   MOCLDY    68  61  78 CALM      29.94S
$$


USA.gov is the U.S. government's official web portal to all federal, state and local government web resources and services.